Date String (YYYY-MM-DD hh:mm:ss) UTC,Instrument flags,Ambient pressure (hPa),Sample flow (lpm),Bypass flow (lpm),Sample temperature (°C),Ambient temperature (°C),ASC tube jacket temperature (°C),LED temperature (°C),Box temperature (°C),Sample RH (%),Span deviation,Mass concentration (μg/m³),Mass concentration (μg/m³),Mass concentration (μg/m³)
DateTimeUTC,F1_M11,P_M11,Q1_M11,Q2_M11,T1_M11,T2_M11,T3_M11,T4_M11,T5_M11,U1_M11,ZSPAN_M11,X2_M11,X0_M11,X1_M11
2023-05-02 19:00:00,,0829.4,5.01,0.00,28.8,27.5,00.0,37.1,30.4,16.0,0004.2,0013.27,0026.97,0011.36
2023-05-02 19:01:00,,0829.3,4.99,0.00,28.8,27.5,00.0,37.1,30.4,16.0,0004.2,0013.31,0026.38,0011.36
2023-05-02 19:02:00,,0829.4,5.00,0.00,28.8,27.6,00.0,37.1,30.4,16.0,0004.2,0013.39,0026.08,0011.37
2023-05-02 19:03:00,,0829.4,4.99,0.00,28.8,27.6,00.0,37.1,30.4,16.0,0004.3,0013.34,0025.88,0011.35
2023-05-02 19:04:00,,0829.4,5.01,0.00,28.9,27.6,00.0,37.1,30.4,16.1,0004.5,0013.25,0025.84,0011.34
2023-05-02 19:05:00,,0829.4,5.01,0.00,28.9,27.6,00.0,37.2,30.5,16.1,0004.6,0013.22,0025.98,0011.32
2023-05-02 19:06:00,,0829.3,5.01,0.00,28.9,27.6,00.0,37.2,30.4,15.9,0004.9,0013.23,0025.79,0011.32
2023-05-02 19:07:00,,0829.4,4.99,0.00,28.9,27.6,00.0,37.2,30.4,15.9,0004.9,0013.20,0025.77,0011.33
2023-05-02 19:08:00,,0829.4,5.00,0.00,28.9,27.6,00.0,37.2,30.4,15.9,0004.7,0013.18,0026.40,0011.33
2023-05-02 19:09:00,,0829.3,5.01,0.00,28.9,27.6,00.0,37.2,30.5,15.9,0004.7,0013.14,0025.88,0011.30
2023-05-02 19:10:00,,0829.4,5.01,0.00,28.9,27.6,00.0,37.2,30.5,15.9,0004.5,0013.10,0026.75,0011.28
2023-05-02 19:11:00,,0829.4,4.99,0.00,28.9,27.6,00.0,37.2,30.5,15.9,0004.7,0013.13,0026.75,0011.28
2023-05-02 19:12:00,,0829.3,4.99,0.00,28.9,27.6,00.0,37.2,30.5,15.9,0004.6,0013.18,0026.42,0011.32
2023-05-02 19:13:00,,0829.3,5.01,0.00,28.9,27.6,00.0,37.2,30.5,15.9,0004.7,0013.24,0026.47,0011.35
2023-05-02 19:14:00,,0829.2,5.01,0.00,29.0,27.7,00.0,37.2,30.6,16.0,0004.7,0013.32,0025.98,0011.44
2023-05-02 19:15:00,,0829.2,4.99,0.00,29.0,27.7,00.0,37.3,30.6,16.1,0004.5,0013.46,0026.17,0011.52
2023-05-02 19:16:00,,0829.2,5.00,0.00,29.0,27.8,00.0,37.3,30.6,16.1,0004.5,0013.53,0026.39,0011.59
2023-05-02 19:17:00,,0829.2,5.00,0.00,29.0,27.8,00.0,37.3,30.6,16.1,0004.4,0013.56,0027.18,0011.65
2023-05-02 19:18:00,,0829.2,5.01,0.00,29.0,27.9,00.0,37.3,30.6,16.2,0004.4,0013.65,0028.89,0011.70
2023-05-02 19:19:00,,0829.2,5.01,0.00,29.1,27.9,00.0,37.3,30.6,16.1,0004.4,0013.74,0028.51,0011.74
2023-05-02 19:20:00,,0829.2,4.99,0.00,29.1,27.9,00.0,37.3,30.6,16.1,0004.3,0013.81,0028.24,0011.76
2023-05-02 19:21:00,,0829.2,4.99,0.00,29.1,27.9,00.0,37.4,30.7,16.1,0004.4,0013.90,0026.70,0011.82
2023-05-02 19:22:00,,0829.2,5.00,0.00,29.1,27.9,00.0,37.4,30.7,15.9,0004.3,0013.98,0026.35,0011.92
2023-05-02 19:23:00,,0829.2,5.01,0.00,29.1,27.8,00.0,37.4,30.7,15.7,0004.3,0014.03,0026.79,0011.97
2023-05-02 19:24:00,,0829.1,4.99,0.00,29.1,27.8,00.0,37.4,30.7,15.8,0004.3,0014.14,0028.63,0012.03
2023-05-02 19:25:00,,0829.1,5.00,0.00,29.1,27.7,00.0,37.4,30.7,15.8,0004.2,0014.15,0029.45,0012.05
2023-05-02 19:26:00,,0829.1,5.00,0.00,29.1,27.7,00.0,37.4,30.6,15.9,0004.1,0014.11,0030.82,0012.05
2023-05-02 19:27:00,,0829.1,4.98,0.00,29.1,27.7,00.0,37.4,30.6,15.9,0004.1,0014.03,0030.33,0012.04
2023-05-02 19:28:00,,0829.2,5.00,0.00,29.1,27.6,00.0,37.4,30.6,15.9,0004.2,0014.03,0029.45,0012.03
2023-05-02 19:29:00,,0829.1,5.01,0.00,29.1,27.6,00.0,37.4,30.6,16.0,0004.1,0014.02,0028.24,0012.03
2023-05-02 19:30:00,,0829.1,4.99,0.00,29.1,27.6,00.0,37.4,30.6,15.8,0004.3,0013.91,0027.74,0012.01
2023-05-02 19:31:00,,0829.1,5.00,0.00,29.0,27.6,00.0,37.4,30.6,15.8,0004.3,0013.87,0027.74,0012.02
2023-05-02 19:32:00,,0829.1,5.00,0.00,29.0,27.6,00.0,37.4,30.5,15.8,0004.2,0013.82,0027.56,0012.00
2023-05-02 19:33:00,,0829.1,5.01,0.00,29.0,27.6,00.0,37.4,30.5,15.8,0004.2,0013.81,0027.47,0011.95
2023-05-02 19:34:00,,0829.0,5.00,0.00,29.0,27.6,00.0,37.4,30.6,15.9,0003.6,0013.79,0027.22,0011.90
2023-05-02 19:35:00,,0829.0,5.00,0.00,29.0,27.6,00.0,37.4,30.6,16.2,0003.8,0013.66,0026.17,0011.83
2023-05-02 19:36:00,,0829.0,5.00,0.00,29.0,27.7,00.0,37.4,30.6,16.0,0004.2,0013.69,0025.85,0011.80
2023-05-02 19:37:00,,0829.0,5.01,0.00,29.1,27.7,00.0,37.4,30.7,16.0,0004.5,0013.74,0025.12,0011.80
2023-05-02 19:38:00,,0829.0,5.00,0.00,29.1,27.7,00.0,37.4,30.7,16.1,0004.6,0013.77,0025.08,0011.78
2023-05-02 19:39:00,,0829.0,5.00,0.00,29.1,27.7,00.0,37.4,30.6,15.9,0004.7,0013.82,0025.72,0011.79
2023-05-02 19:40:00,,0828.9,4.99,0.00,29.1,27.8,00.0,37.4,30.7,16.0,0004.8,0013.80,0026.43,0011.81
2023-05-02 19:41:00,,0829.0,4.99,0.00,29.1,27.8,00.0,37.5,30.7,16.0,0004.7,0013.84,0027.90,0011.85
2023-05-02 19:42:00,,0829.0,5.00,0.00,29.1,27.8,00.0,37.5,30.7,15.8,0004.9,0013.85,0028.83,0011.89
2023-05-02 19:43:00,,0828.9,5.01,0.00,29.1,27.8,00.0,37.5,30.7,15.7,0004.9,0013.87,0028.67,0011.90
2023-05-02 19:44:00,,0829.0,5.01,0.00,29.1,27.8,00.0,37.5,30.7,15.7,0004.8,0013.84,0028.93,0011.91
2023-05-02 19:45:00,,0829.0,4.99,0.00,29.1,27.8,00.0,37.5,30.7,15.7,0005.2,0013.82,0029.53,0011.93
2023-05-02 19:46:00,,0829.0,5.00,0.00,29.1,27.8,00.0,37.5,30.7,15.7,0005.1,0013.88,0029.11,0011.98
2023-05-02 19:47:00,,0829.0,4.99,0.00,29.1,27.8,00.0,37.5,30.7,15.7,0005.1,0013.84,0029.38,0012.00
2023-05-02 19:48:00,,0829.0,5.02,0.00,29.1,27.8,00.0,37.5,30.7,15.7,0005.0,0013.81,0029.46,0012.02
2023-05-02 19:49:00,,0829.0,5.00,0.00,29.2,27.8,00.0,37.5,30.7,15.6,0005.0,0013.82,0030.24,0012.07
2023-05-02 19:50:00,,0828.9,5.00,0.00,29.2,27.8,00.0,37.5,30.7,15.6,0004.8,0013.82,0029.76,0012.10
2023-05-02 19:51:00,,0828.9,5.00,0.00,29.2,27.8,00.0,37.5,30.8,15.9,0004.8,0013.82,0028.64,0012.09
2023-05-02 19:52:00,,0828.9,5.00,0.00,29.2,27.9,00.0,37.5,30.8,16.0,0004.6,0013.83,0028.12,0012.09
2023-05-02 19:53:00,,0828.9,5.00,0.00,29.2,27.9,00.0,37.6,30.8,16.0,0004.4,0013.81,0026.64,0012.08
2023-05-02 19:54:00,,0829.0,5.01,0.00,29.3,28.0,00.0,37.6,30.9,16.0,0004.3,0013.81,0026.88,0012.08
2023-05-02 19:55:00,,0828.9,5.00,0.00,29.3,28.0,00.0,37.6,30.9,16.4,0004.2,0013.85,0026.93,0012.09
2023-05-02 19:56:00,,0828.9,5.00,0.00,29.3,28.1,00.0,37.6,30.9,16.2,0004.0,0013.84,0026.36,0012.07
2023-05-02 19:57:00,,0828.9,5.00,0.00,29.3,28.1,00.0,37.6,30.9,16.1,0004.1,0013.83,0026.59,0012.07
2023-05-02 19:58:00,,0829.0,4.99,0.00,29.3,28.1,00.0,37.6,30.9,15.9,0003.8,0013.86,0026.05,0012.05
2023-05-02 19:59:00,,0828.9,4.99,0.00,29.3,28.1,00.0,37.6,31.0,15.8,0004.0,0013.88,0025.79,0012.03
